When you browse on this site, cookies collect data to enhance your experience and personalize the content and advertising you see.
Visit our Privacy Policy to learn more. By continuing to use the site, you agree to this use of cookies and data.
  • In Portugal
  • List of Countries
  • For 7 days
  • Water Temperature
  • Weather Map
  • Weather Widgets
  • user-avatar
    Login

    Hourly Weather Gwatemala

    Today, 7 April, Tuesday

    Time Temperature Precipitation Wind Pressure Humidity
    00:00 +19°C° 0 mm 1 mps 638 mmHg 81%
    01:00 +19°C° 0 mm 1 mps 638 mmHg 84%
    02:00 +19°C° 0 mm 1 mps 637 mmHg 87%
    03:00 +18°C° 0 mm 1 mps 637 mmHg 90%
    04:00 +18°C° 0 mm 1 mps 637 mmHg 89%
    05:00 +18°C° 0 mm 1 mps 637 mmHg 88%
    06:00 +18°C° 0 mm 1 mps 637 mmHg 89%
    07:00 +21°C° 0 mm 1 mps 639 mmHg 74%
    08:00 +24°C° 0 mm 1 mps 640 mmHg 58%
    09:00 +27°C° 0 mm 1 mps 642 mmHg 42%
    10:00 +29°C° 0 mm 2 mps 642 mmHg 35%
    11:00 +30°C° 0 mm 2 mps 642 mmHg 29%
    12:00 +32°C° 0 mm 2 mps 642 mmHg 22%
    13:00 +32°C° 0 mm 2 mps 642 mmHg 22%
    14:00 +32°C° 0 mm 2 mps 641 mmHg 22%
    15:00 +32°C° 0 mm 2 mps 641 mmHg 21%
    16:00 +30°C° 0 mm 2 mps 640 mmHg 32%
    17:00 +27°C° 0 mm 2 mps 639 mmHg 43%
    18:00 +25°C° 0 mm 1 mps 638 mmHg 54%
    19:00 +24°C° 0 mm 1 mps 639 mmHg 57%
    20:00 +22°C° 0 mm 1 mps 639 mmHg 61%
    21:00 +21°C° 0 mm 1 mps 639 mmHg 65%
    22:00 +21°C° 0 mm 1 mps 639 mmHg 66%
    23:00 +20°C° 0 mm 1 mps 638 mmHg 67%

    Tomorrow, 8 April, Wednesday

    Time Temperature Precipitation Wind Pressure Humidity
    00:00 +20°C° 0 mm 1 mps 638 mmHg 68%
    01:00 +19°C° 0 mm 1 mps 637 mmHg 70%
    02:00 +19°C° 0 mm 1 mps 637 mmHg 72%
    03:00 +19°C° 0 mm 1 mps 637 mmHg 74%
    04:00 +19°C° 0 mm 1 mps 637 mmHg 74%
    05:00 +18°C° 0 mm 1 mps 637 mmHg 74%
    06:00 +18°C° 0 mm 1 mps 637 mmHg 74%
    07:00 +21°C° 0 mm 1 mps 638 mmHg 63%
    08:00 +25°C° 0 mm 1 mps 640 mmHg 52%
    09:00 +28°C° 0 mm 1 mps 641 mmHg 40%
    10:00 +29°C° 0 mm 1 mps 641 mmHg 35%
    11:00 +31°C° 0 mm 1 mps 641 mmHg 30%
    12:00 +32°C° 0 mm 2 mps 641 mmHg 25%
    13:00 +32°C° 0 mm 2 mps 641 mmHg 25%
    14:00 +32°C° 0 mm 2 mps 640 mmHg 25%
    15:00 +32°C° 0 mm 2 mps 639 mmHg 26%
    16:00 +30°C° 0 mm 2 mps 638 mmHg 34%
    17:00 +28°C° 0 mm 2 mps 638 mmHg 42%
    18:00 +26°C° 0 mm 1 mps 637 mmHg 50%
    19:00 +24°C° 0 mm 1 mps 638 mmHg 58%
    20:00 +23°C° 0 mm 1 mps 638 mmHg 66%
    21:00 +19°C° 0 mm 0 mps 638 mmHg 74%
    22:00 +19°C° 0 mm 0 mps 638 mmHg 71%
    23:00 +21°C° 0 mm 1 mps 638 mmHg 69%

    Day after tomorrow, 9 April, Thursday

    Time Temperature Precipitation Wind Pressure Humidity
    00:00 +20°C° 0 mm 1 mps 638 mmHg 66%
    01:00 +20°C° 0 mm 1 mps 637 mmHg 66%
    02:00 +19°C° 0 mm 1 mps 636 mmHg 67%
    03:00 +19°C° 0 mm 1 mps 636 mmHg 68%
    04:00 +19°C° 0 mm 1 mps 636 mmHg 69%
    05:00 +19°C° 0 mm 1 mps 636 mmHg 70%
    06:00 +19°C° 0 mm 1 mps 636 mmHg 71%
    07:00 +22°C° 0 mm 1 mps 638 mmHg 61%
    08:00 +25°C° 0 mm 1 mps 639 mmHg 51%
    09:00 +29°C° 0 mm 1 mps 641 mmHg 41%
    10:00 +30°C° 0 mm 1 mps 641 mmHg 38%
    11:00 +31°C° 0 mm 2 mps 640 mmHg 35%
    12:00 +32°C° 0 mm 2 mps 640 mmHg 33%
    13:00 +31°C° 0.1 mm 2 mps 639 mmHg 36%
    14:00 +31°C° 0.1 mm 2 mps 638 mmHg 39%
    15:00 +30°C° 0.1 mm 2 mps 638 mmHg 43%
    16:00 +28°C° 0.4 mm 2 mps 637 mmHg 52%
    17:00 +26°C° 0.4 mm 2 mps 637 mmHg 62%
    18:00 +24°C° 0.4 mm 2 mps 636 mmHg 71%
    19:00 +23°C° 0.1 mm 1 mps 637 mmHg 76%
    20:00 +22°C° 0.1 mm 1 mps 637 mmHg 80%
    21:00 +21°C° 0.1 mm 1 mps 637 mmHg 85%
    22:00 +19°C° 0.1 mm 0 mps 637 mmHg 83%
    23:00 +19°C° 0.1 mm 0 mps 637 mmHg 81%

    10 April, Friday

    Time Temperature Precipitation Wind Pressure Humidity
    00:00 +19°C° 0.1 mm 0 mps 637 mmHg 79%
    01:00 +18°C° 0 mm 0 mps 636 mmHg 79%
    02:00 +18°C° 0 mm 0 mps 636 mmHg 79%
    03:00 +18°C° 0 mm 0 mps 636 mmHg 79%
    04:00 +18°C° 0 mm 0 mps 636 mmHg 79%
    05:00 +17°C° 0 mm 0 mps 636 mmHg 79%
    06:00 +17°C° 0 mm 0 mps 636 mmHg 79%
    07:00 +22°C° 0 mm 1 mps 637 mmHg 70%
    08:00 +25°C° 0 mm 1 mps 639 mmHg 60%
    09:00 +28°C° 0 mm 1 mps 640 mmHg 51%
    10:00 +29°C° 0 mm 1 mps 640 mmHg 48%
    11:00 +30°C° 0 mm 2 mps 640 mmHg 44%
    12:00 +31°C° 0 mm 2 mps 640 mmHg 41%
    13:00 +31°C° 0.5 mm 2 mps 639 mmHg 44%
    14:00 +30°C° 0.5 mm 3 mps 638 mmHg 48%
    15:00 +29°C° 0.5 mm 3 mps 637 mmHg 52%
    16:00 +27°C° 0.5 mm 3 mps 637 mmHg 60%
    17:00 +25°C° 0.5 mm 2 mps 636 mmHg 69%
    18:00 +24°C° 0.5 mm 2 mps 636 mmHg 78%
    19:00 +23°C° 0.3 mm 2 mps 636 mmHg 81%
    20:00 +22°C° 0.3 mm 1 mps 637 mmHg 83%
    21:00 +22°C° 0.3 mm 1 mps 637 mmHg 85%
    22:00 +21°C° 0.1 mm 1 mps 637 mmHg 84%
    23:00 +19°C° 0.1 mm 0 mps 637 mmHg 83%

    11 April, Saturday

    Time Temperature Precipitation Wind Pressure Humidity
    00:00 +19°C° 0.1 mm 0 mps 636 mmHg 81%
    01:00 +19°C° 0.1 mm 0 mps 636 mmHg 82%
    02:00 +18°C° 0.1 mm 0 mps 636 mmHg 82%
    03:00 +18°C° 0.1 mm 0 mps 635 mmHg 83%
    04:00 +18°C° 0.1 mm 0 mps 636 mmHg 83%
    05:00 +18°C° 0.1 mm 0 mps 636 mmHg 83%
    06:00 +18°C° 0.1 mm 0 mps 636 mmHg 83%
    07:00 +22°C° 0 mm 1 mps 637 mmHg 75%
    08:00 +25°C° 0 mm 1 mps 638 mmHg 66%
    09:00 +27°C° 0 mm 1 mps 639 mmHg 57%
    10:00 +28°C° 0.1 mm 2 mps 639 mmHg 55%
    11:00 +28°C° 0.1 mm 3 mps 639 mmHg 53%
    12:00 +29°C° 0.1 mm 3 mps 639 mmHg 52%
    13:00 +28°C° 0.2 mm 3 mps 638 mmHg 53%
    14:00 +28°C° 0.2 mm 3 mps 637 mmHg 55%
    15:00 +28°C° 0.2 mm 3 mps 636 mmHg 56%
    16:00 +26°C° 0.1 mm 3 mps 636 mmHg 63%
    17:00 +24°C° 0.1 mm 3 mps 636 mmHg 71%
    18:00 +23°C° 0.1 mm 2 mps 635 mmHg 78%
    19:00 +21°C° 0.1 mm 2 mps 636 mmHg 82%
    20:00 +21°C° 0.1 mm 1 mps 636 mmHg 86%
    21:00 +20°C° 0.1 mm 1 mps 636 mmHg 90%
    22:00 +20°C° 0 mm 1 mps 636 mmHg 91%
    23:00 +20°C° 0 mm 1 mps 636 mmHg 91%

    12 April, Sunday

    Time Temperature Precipitation Wind Pressure Humidity
    00:00 +20°C° 0 mm 1 mps 636 mmHg 92%
    01:00 +19°C° 0 mm 1 mps 635 mmHg 92%
    02:00 +19°C° 0 mm 1 mps 635 mmHg 91%
    03:00 +19°C° 0 mm 1 mps 635 mmHg 91%
    04:00 +18°C° 0 mm 1 mps 635 mmHg 91%
    05:00 +18°C° 0 mm 1 mps 635 mmHg 92%
    06:00 +18°C° 0 mm 1 mps 635 mmHg 92%
    07:00 +21°C° 0 mm 1 mps 636 mmHg 80%
    08:00 +23°C° 0 mm 1 mps 638 mmHg 68%
    09:00 +26°C° 0 mm 2 mps 639 mmHg 56%
    10:00 +27°C° 0 mm 2 mps 639 mmHg 53%
    11:00 +28°C° 0 mm 3 mps 639 mmHg 49%
    12:00 +29°C° 0 mm 4 mps 639 mmHg 45%
    13:00 +29°C° 0 mm 4 mps 638 mmHg 48%
    14:00 +28°C° 0 mm 4 mps 638 mmHg 50%
    15:00 +28°C° 0 mm 4 mps 637 mmHg 53%
    16:00 +26°C° 0.1 mm 3 mps 637 mmHg 61%
    17:00 +25°C° 0.1 mm 3 mps 636 mmHg 70%
    18:00 +23°C° 0.1 mm 2 mps 636 mmHg 78%
    19:00 +21°C° 0.1 mm 2 mps 636 mmHg 82%
    20:00 +21°C° 0.1 mm 2 mps 637 mmHg 86%
    21:00 +20°C° 0.1 mm 2 mps 637 mmHg 90%
    22:00 +21°C° 0 mm 1 mps 637 mmHg 91%
    23:00 +20°C° 0 mm 1 mps 637 mmHg 92%
    Show more